Time,TemperatureF,DewpointF,PressureIn,WindDirection,WindDirectionDegrees,WindSpeedMPH,WindSpeedGustMPH,Humidity,HourlyPrecipIn,Conditions,Clouds,dailyrainin,SoftwareType,DateUTC
2013-07-02 00:01:00,73.9,70.9,29.92,SSE,158,7.0,9.0,90,0.00,,,0.17,meteohub,2013-07-02 04:01:00,
2013-07-02 00:02:00,73.9,70.9,29.92,SSE,158,7.0,9.0,90,0.00,,,0.17,meteohub,2013-07-02 04:02:00,
2013-07-02 00:07:00,73.9,70.9,29.92,SSE,158,4.0,9.0,90,0.00,,,0.00,meteohub,2013-07-02 04:07:00,
2013-07-02 00:12:00,73.9,70.9,29.89,South,180,3.0,9.0,90,0.00,,,0.00,meteohub,2013-07-02 04:12:00,
2013-07-02 00:17:00,73.8,70.3,29.89,SSE,158,4.0,9.0,89,0.00,,,0.00,meteohub,2013-07-02 04:17:00,
2013-07-02 00:23:00,73.8,70.3,29.89,SSE,158,1.0,9.0,89,0.00,,,0.00,meteohub,2013-07-02 04:23:00,
2013-07-02 00:28:00,73.8,70.3,29.92,SSE,158,3.0,7.0,89,0.00,,,0.00,meteohub,2013-07-02 04:28:00,
2013-07-02 00:33:00,73.8,70.3,29.92,ESE,112,4.0,7.0,89,0.00,,,0.00,meteohub,2013-07-02 04:33:00,
2013-07-02 00:38:00,73.6,70.2,29.92,SSE,158,4.0,7.0,89,0.00,,,0.00,meteohub,2013-07-02 04:38:00,
2013-07-02 00:43:00,73.6,70.2,29.92,SSE,158,3.0,6.0,89,0.00,,,0.00,meteohub,2013-07-02 04:43:00,
2013-07-02 00:48:00,73.6,70.2,29.92,SSW,202,1.0,6.0,89,0.00,,,0.00,meteohub,2013-07-02 04:48:00,
2013-07-02 00:53:00,73.6,70.2,29.92,SSE,158,3.0,6.0,89,0.00,,,0.00,meteohub,2013-07-02 04:53:00,
2013-07-02 00:59:00,73.4,70.3,29.92,SSW,202,3.0,4.0,90,0.00,,,0.00,meteohub,2013-07-02 04:59:00,
2013-07-02 01:04:00,73.4,70.3,29.92,SSE,158,4.0,5.0,90,0.00,,,0.00,meteohub,2013-07-02 05:04:00,
2013-07-02 01:09:00,73.4,70.3,29.92,SSE,158,2.0,6.0,90,0.00,,,0.00,meteohub,2013-07-02 05:09:00,
2013-07-02 01:14:00,73.2,70.2,29.92,SSE,158,4.0,6.0,90,0.00,,,0.00,meteohub,2013-07-02 05:14:00,
2013-07-02 01:19:00,73.2,70.2,29.92,SW,225,3.0,6.0,90,0.00,,,0.00,meteohub,2013-07-02 05:19:00,
2013-07-02 01:24:00,73.2,70.2,29.92,South,180,1.0,5.0,90,0.00,,,0.00,meteohub,2013-07-02 05:24:00,
2013-07-02 01:29:00,73.2,70.5,29.92,SE,135,4.0,5.0,91,0.00,,,0.00,meteohub,2013-07-02 05:29:00,
2013-07-02 01:35:00,73.2,70.5,29.92,SE,135,6.0,8.0,91,0.00,,,0.00,meteohub,2013-07-02 05:35:00,
2013-07-02 01:40:00,73.4,70.3,29.92,SW,225,4.0,8.0,90,0.00,,,0.00,meteohub,2013-07-02 05:40:00,
2013-07-02 01:45:00,73.4,70.3,29.92,South,180,2.0,10.0,90,0.00,,,0.00,meteohub,2013-07-02 05:45:00,
2013-07-02 01:50:00,73.4,70.3,29.92,SSE,158,3.0,10.0,90,0.00,,,0.00,meteohub,2013-07-02 05:50:00,
2013-07-02 01:55:00,73.4,70.3,29.92,SSE,158,5.0,10.0,90,0.00,,,0.00,meteohub,2013-07-02 05:55:00,
2013-07-02 02:00:00,73.4,70.3,29.92,SSE,158,1.0,8.0,90,0.00,,,0.00,meteohub,2013-07-02 06:00:00,
2013-07-02 02:05:00,73.4,70.3,29.92,SSE,158,3.0,8.0,90,0.00,,,0.00,meteohub,2013-07-02 06:05:00,
2013-07-02 02:11:00,73.4,70.3,29.92,South,180,4.0,8.0,90,0.00,,,0.00,meteohub,2013-07-02 06:11:00,
2013-07-02 02:16:00,73.4,70.3,29.92,SSE,158,3.0,10.0,90,0.00,,,0.00,meteohub,2013-07-02 06:16:00,
2013-07-02 02:21:00,73.4,70.3,29.92,SSE,158,5.0,10.0,90,0.00,,,0.00,meteohub,2013-07-02 06:21:00,
2013-07-02 02:26:00,73.4,70.3,29.92,SSE,158,3.0,10.0,90,0.00,,,0.00,meteohub,2013-07-02 06:26:00,
2013-07-02 02:31:00,73.4,70.3,29.92,SSE,158,3.0,7.0,90,0.00,,,0.00,meteohub,2013-07-02 06:31:00,
2013-07-02 02:36:00,73.4,70.3,29.92,SSW,202,5.0,10.0,90,0.00,,,0.00,meteohub,2013-07-02 06:36:00,
2013-07-02 02:42:00,73.4,70.3,29.92,SSE,158,4.0,10.0,90,0.00,,,0.00,meteohub,2013-07-02 06:42:00,
2013-07-02 02:47:00,73.4,70.3,29.92,South,180,2.0,8.0,90,0.00,,,0.00,meteohub,2013-07-02 06:47:00,
2013-07-02 02:52:00,73.4,70.3,29.92,SE,135,3.0,9.0,90,0.00,,,0.00,meteohub,2013-07-02 06:52:00,
2013-07-02 02:57:00,73.4,70.3,29.95,SSE,158,3.0,9.0,90,0.00,,,0.00,meteohub,2013-07-02 06:57:00,
2013-07-02 03:02:00,73.4,70.3,29.95,SSE,158,2.0,8.0,90,0.00,,,0.00,meteohub,2013-07-02 07:02:00,
2013-07-02 03:07:00,73.4,70.3,29.95,South,180,3.0,6.0,90,0.00,,,0.00,meteohub,2013-07-02 07:07:00,
2013-07-02 03:12:00,73.4,70.3,29.92,SSW,202,3.0,10.0,90,0.00,,,0.00,meteohub,2013-07-02 07:12:00,
2013-07-02 03:17:00,73.4,70.3,29.92,SSW,202,3.0,11.0,90,0.00,,,0.00,meteohub,2013-07-02 07:17:00,
2013-07-02 03:22:00,73.4,70.3,29.92,South,180,1.0,11.0,90,0.00,,,0.00,meteohub,2013-07-02 07:22:00,
2013-07-02 03:27:00,73.4,70.3,29.92,SSE,158,3.0,11.0,90,0.00,,,0.00,meteohub,2013-07-02 07:27:00,
2013-07-02 03:32:00,73.4,70.3,29.92,South,180,4.0,9.0,90,0.00,,,0.00,meteohub,2013-07-02 07:32:00,
2013-07-02 03:37:00,73.4,70.3,29.92,SSE,158,2.0,9.0,90,0.00,,,0.00,meteohub,2013-07-02 07:37:00,
2013-07-02 03:42:00,73.4,70.3,29.92,SSE,158,2.0,9.0,90,0.00,,,0.00,meteohub,2013-07-02 07:42:00,
2013-07-02 03:47:00,73.4,70.3,29.92,SSE,158,3.0,9.0,90,0.00,,,0.00,meteohub,2013-07-02 07:47:00,
2013-07-02 03:52:00,73.4,70.3,29.92,South,180,4.0,9.0,90,0.00,,,0.00,meteohub,2013-07-02 07:52:00,
2013-07-02 03:57:00,73.4,70.3,29.95,South,180,3.0,10.0,90,0.00,,,0.00,meteohub,2013-07-02 07:57:00,
2013-07-02 04:02:00,73.4,70.3,29.95,SSE,158,2.0,10.0,90,0.00,,,0.00,meteohub,2013-07-02 08:02:00,
2013-07-02 04:07:00,73.4,70.3,29.95,SE,135,4.0,10.0,90,0.00,,,0.00,meteohub,2013-07-02 08:07:00,
2013-07-02 04:12:00,73.4,70.3,29.95,SSW,202,1.0,7.0,90,0.00,,,0.00,meteohub,2013-07-02 08:12:00,
2013-07-02 04:17:00,73.4,70.3,29.95,SSE,158,3.0,7.0,90,0.00,,,0.00,meteohub,2013-07-02 08:17:00,
2013-07-02 04:22:00,73.4,70.3,29.95,SSE,158,2.0,7.0,90,0.00,,,0.00,meteohub,2013-07-02 08:22:00,
2013-07-02 04:27:00,73.4,70.3,29.95,SSE,158,4.0,6.0,90,0.00,,,0.00,meteohub,2013-07-02 08:27:00,
2013-07-02 04:32:00,73.4,70.3,29.95,SSE,158,3.0,6.0,90,0.00,,,0.00,meteohub,2013-07-02 08:32:00,
2013-07-02 04:37:00,73.2,70.5,29.95,SSE,158,2.0,6.0,91,0.00,,,0.00,meteohub,2013-07-02 08:37:00,
2013-07-02 04:42:00,73.2,70.2,29.95,SSW,202,2.0,6.0,90,0.00,,,0.00,meteohub,2013-07-02 08:42:00,
2013-07-02 04:47:00,73.2,70.5,29.95,SSW,202,4.0,6.0,91,0.00,,,0.00,meteohub,2013-07-02 08:47:00,
2013-07-02 04:52:00,73.0,70.3,29.95,SE,135,4.0,6.0,91,0.00,,,0.00,meteohub,2013-07-02 08:52:00,
2013-07-02 04:57:00,73.0,70.3,29.95,SE,135,4.0,6.0,91,0.00,,,0.00,meteohub,2013-07-02 08:57:00,
2013-07-02 05:02:00,72.9,70.2,29.95,South,180,1.0,8.0,91,0.00,,,0.00,meteohub,2013-07-02 09:02:00,
2013-07-02 05:07:00,72.9,70.2,29.95,SSE,158,2.0,8.0,91,0.00,,,0.00,meteohub,2013-07-02 09:07:00,
2013-07-02 05:12:00,72.9,70.2,29.95,SSE,158,3.0,8.0,91,0.00,,,0.00,meteohub,2013-07-02 09:12:00,
2013-07-02 05:17:00,72.9,70.2,29.95,WSW,248,4.0,6.0,91,0.00,,,0.00,meteohub,2013-07-02 09:17:00,
2013-07-02 05:22:00,72.9,70.3,29.95,SSE,158,6.0,9.0,92,0.00,,,0.00,meteohub,2013-07-02 09:22:00,
2013-07-02 05:27:00,73.0,70.5,29.95,South,180,1.0,9.0,92,0.00,,,0.00,meteohub,2013-07-02 09:27:00,
2013-07-02 05:32:00,73.0,70.5,29.95,SSW,202,8.0,9.0,92,0.00,,,0.00,meteohub,2013-07-02 09:32:00,
2013-07-02 05:37:00,73.0,70.5,29.95,SSW,202,2.0,8.0,92,0.00,,,0.00,meteohub,2013-07-02 09:37:00,
2013-07-02 05:42:00,73.0,70.5,29.95,South,180,4.0,8.0,92,0.00,,,0.00,meteohub,2013-07-02 09:42:00,
2013-07-02 05:47:00,73.0,70.5,29.95,SSE,158,2.0,8.0,92,0.00,,,0.00,meteohub,2013-07-02 09:47:00,
2013-07-02 05:52:00,73.0,70.9,29.95,SE,135,2.0,4.0,93,0.00,,,0.00,meteohub,2013-07-02 09:52:00,
2013-07-02 05:57:00,73.0,70.9,29.95,WSW,248,2.0,6.0,93,0.00,,,0.00,meteohub,2013-07-02 09:57:00,
2013-07-02 06:02:00,73.2,70.7,29.95,SE,135,3.0,6.0,92,0.00,,,0.00,meteohub,2013-07-02 10:02:00,
2013-07-02 06:07:00,73.2,70.7,29.95,SSW,202,4.0,5.0,92,0.00,,,0.00,meteohub,2013-07-02 10:07:00,
2013-07-02 06:12:00,73.2,70.7,29.95,SSW,202,3.0,6.0,92,0.00,,,0.00,meteohub,2013-07-02 10:12:00,
2013-07-02 06:17:00,73.2,70.7,29.95,SSE,158,3.0,6.0,92,0.00,,,0.00,meteohub,2013-07-02 10:17:00,
2013-07-02 06:22:00,73.2,70.7,29.95,SSW,202,1.0,6.0,92,0.00,,,0.00,meteohub,2013-07-02 10:22:00,
2013-07-02 06:27:00,73.4,70.9,29.95,SSE,158,4.0,7.0,92,0.00,,,0.00,meteohub,2013-07-02 10:27:00,
2013-07-02 06:32:00,73.4,70.9,29.95,SSE,158,5.0,7.0,92,0.00,,,0.00,meteohub,2013-07-02 10:32:00,
2013-07-02 06:37:00,73.4,70.9,29.95,SSE,158,3.0,7.0,92,0.00,,,0.00,meteohub,2013-07-02 10:37:00,
2013-07-02 06:42:00,73.4,70.9,29.95,SSE,158,5.0,7.0,92,0.00,,,0.00,meteohub,2013-07-02 10:42:00,
2013-07-02 06:47:00,73.4,70.5,29.95,SSE,158,3.0,8.0,91,0.00,,,0.00,meteohub,2013-07-02 10:47:00,
2013-07-02 06:52:00,73.6,70.7,29.95,South,180,4.0,8.0,91,0.00,,,0.00,meteohub,2013-07-02 10:52:00,
2013-07-02 06:57:00,73.6,70.7,29.98,SSE,158,3.0,10.0,91,0.00,,,0.00,meteohub,2013-07-02 10:57:00,
2013-07-02 07:02:00,73.6,70.7,29.98,SE,135,2.0,10.0,91,0.00,,,0.00,meteohub,2013-07-02 11:02:00,
2013-07-02 07:07:00,73.6,70.7,29.98,South,180,5.0,10.0,91,0.00,,,0.00,meteohub,2013-07-02 11:07:00,
2013-07-02 07:12:00,73.6,70.7,29.98,South,180,1.0,8.0,91,0.00,,,0.00,meteohub,2013-07-02 11:12:00,
2013-07-02 07:17:00,73.6,70.7,29.98,SSE,158,2.0,8.0,91,0.00,,,0.00,meteohub,2013-07-02 11:17:00,
2013-07-02 07:22:00,73.6,70.7,29.98,SSE,158,2.0,8.0,91,0.00,,,0.00,meteohub,2013-07-02 11:22:00,
2013-07-02 07:27:00,73.6,70.7,29.98,WNW,292,3.0,7.0,91,0.00,,,0.00,meteohub,2013-07-02 11:27:00,
2013-07-02 07:32:00,73.6,70.7,29.98,SSE,158,6.0,8.0,91,0.00,,,0.00,meteohub,2013-07-02 11:32:00,
2013-07-02 07:37:00,73.6,70.7,29.98,SSE,158,2.0,8.0,91,0.00,,,0.00,meteohub,2013-07-02 11:37:00,
2013-07-02 07:42:00,73.6,70.7,29.98,SSE,158,3.0,9.0,91,0.00,,,0.00,meteohub,2013-07-02 11:42:00,
2013-07-02 07:47:00,73.6,70.7,29.98,SSE,158,2.0,9.0,91,0.00,,,0.00,meteohub,2013-07-02 11:47:00,
2013-07-02 07:52:00,73.6,70.7,29.98,WSW,248,2.0,7.0,91,0.00,,,0.00,meteohub,2013-07-02 11:52:00,
2013-07-02 07:57:00,73.8,70.9,30.01,SSE,158,4.0,7.0,91,0.00,,,0.00,meteohub,2013-07-02 11:57:00,
2013-07-02 08:02:00,73.8,70.9,30.01,SSW,202,6.0,6.0,91,0.00,,,0.00,meteohub,2013-07-02 12:02:00,
2013-07-02 08:08:00,73.8,70.9,30.01,SSE,158,3.0,6.0,91,0.00,,,0.00,meteohub,2013-07-02 12:08:00,
2013-07-02 08:13:00,73.9,71.1,30.01,SW,225,3.0,8.0,91,0.00,,,0.00,meteohub,2013-07-02 12:13:00,
2013-07-02 08:18:00,73.9,71.1,30.01,West,270,4.0,8.0,91,0.00,,,0.00,meteohub,2013-07-02 12:18:00,
2013-07-02 08:23:00,73.9,71.1,30.01,SSE,158,4.0,6.0,91,0.00,,,0.00,meteohub,2013-07-02 12:23:00,
2013-07-02 08:28:00,74.1,71.2,30.01,SSE,158,6.0,6.0,91,0.00,,,0.00,meteohub,2013-07-02 12:28:00,
2013-07-02 08:33:00,74.1,71.1,30.01,SW,225,5.0,8.0,90,0.00,,,0.00,meteohub,2013-07-02 12:33:00,
2013-07-02 08:38:00,74.1,71.1,30.01,SSW,202,4.0,8.0,90,0.00,,,0.00,meteohub,2013-07-02 12:38:00,
2013-07-02 08:44:00,74.3,71.2,30.01,SSW,202,5.0,8.0,90,0.00,,,0.00,meteohub,2013-07-02 12:44:00,
2013-07-02 08:49:00,74.5,71.4,30.01,South,180,2.0,8.0,90,0.00,,,0.00,meteohub,2013-07-02 12:49:00,
2013-07-02 08:54:00,74.5,71.4,30.01,SSE,158,3.0,8.0,90,0.00,,,0.00,meteohub,2013-07-02 12:54:00,
2013-07-02 08:59:00,74.7,71.2,30.01,SSW,202,3.0,8.0,89,0.00,,,0.00,meteohub,2013-07-02 12:59:00,
2013-07-02 09:04:00,74.8,71.4,30.01,SSW,202,4.0,9.0,89,0.00,,,0.00,meteohub,2013-07-02 13:04:00,
2013-07-02 09:09:00,74.8,71.4,30.01,ESE,112,6.0,9.0,89,0.00,,,0.00,meteohub,2013-07-02 13:09:00,
2013-07-02 09:15:00,75.2,71.4,30.01,SSE,158,2.0,6.0,88,0.00,,,0.00,meteohub,2013-07-02 13:15:00,
2013-07-02 09:20:00,75.2,71.4,30.01,SSE,158,3.0,8.0,88,0.00,,,0.00,meteohub,2013-07-02 13:20:00,
2013-07-02 09:25:00,75.2,71.4,30.01,SSW,202,6.0,8.0,88,0.00,,,0.00,meteohub,2013-07-02 13:25:00,
2013-07-02 09:30:00,75.6,71.4,29.98,WSW,248,2.0,9.0,87,0.00,,,0.00,meteohub,2013-07-02 13:30:00,
2013-07-02 09:35:00,75.6,71.4,29.98,SE,135,4.0,9.0,87,0.00,,,0.00,meteohub,2013-07-02 13:35:00,
2013-07-02 09:41:00,75.9,71.8,29.98,SSW,202,6.0,6.0,87,0.00,,,0.00,meteohub,2013-07-02 13:41:00,
2013-07-02 09:46:00,76.1,72.0,29.98,SSW,202,4.0,8.0,87,0.00,,,0.00,meteohub,2013-07-02 13:46:00,
2013-07-02 09:51:00,76.1,71.2,29.98,SW,225,1.0,8.0,85,0.00,,,0.00,meteohub,2013-07-02 13:51:00,
2013-07-02 09:56:00,76.1,71.2,29.98,WNW,292,2.0,9.0,85,0.00,,,0.00,meteohub,2013-07-02 13:56:00,
2013-07-02 10:01:00,76.5,72.0,29.98,SSE,158,3.0,9.0,86,0.00,,,0.00,meteohub,2013-07-02 14:01:00,
2013-07-02 10:06:00,76.6,71.4,29.98,SSE,158,6.0,9.0,84,0.00,,,0.00,meteohub,2013-07-02 14:06:00,
2013-07-02 10:11:00,77.0,71.4,29.98,ESE,112,10.0,10.0,83,0.00,,,0.00,meteohub,2013-07-02 14:11:00,
2013-07-02 10:17:00,77.2,71.2,29.98,South,180,6.0,10.0,82,0.00,,,0.00,meteohub,2013-07-02 14:17:00,
2013-07-02 10:22:00,77.2,70.9,29.98,SSE,158,7.0,10.0,81,0.00,,,0.00,meteohub,2013-07-02 14:22:00,
2013-07-02 10:27:00,77.0,70.7,29.98,South,180,2.0,10.0,81,0.00,,,0.00,meteohub,2013-07-02 14:27:00,
2013-07-02 10:32:00,77.0,70.3,29.98,SSE,158,3.0,9.0,80,0.00,,,0.00,meteohub,2013-07-02 14:32:00,
2013-07-02 10:37:00,76.8,70.5,29.98,SSE,158,6.0,9.0,81,0.00,,,0.00,meteohub,2013-07-02 14:37:00,
2013-07-02 10:42:00,76.8,70.9,29.98,SSW,202,2.0,9.0,82,0.00,,,0.00,meteohub,2013-07-02 14:42:00,
2013-07-02 10:47:00,77.0,71.1,29.98,SSW,202,2.0,9.0,82,0.00,,,0.00,meteohub,2013-07-02 14:47:00,
2013-07-02 10:52:00,77.0,71.1,29.98,South,180,4.0,7.0,82,0.00,,,0.00,meteohub,2013-07-02 14:52:00,
2013-07-02 10:59:00,77.0,71.1,30.01,SSW,202,2.0,7.0,82,0.00,,,0.00,meteohub,2013-07-02 14:59:00,
2013-07-02 11:04:00,77.2,71.2,30.01,SSE,158,3.0,7.0,82,0.00,,,0.00,meteohub,2013-07-02 15:04:00,
2013-07-02 11:09:00,77.2,71.2,29.98,South,180,1.0,8.0,82,0.00,,,0.00,meteohub,2013-07-02 15:09:00,
2013-07-02 11:14:00,77.4,71.4,29.98,SE,135,2.0,8.0,82,0.00,,,0.00,meteohub,2013-07-02 15:14:00,
2013-07-02 11:19:00,77.5,71.2,29.98,SW,225,3.0,10.0,81,0.00,,,0.00,meteohub,2013-07-02 15:19:00,
2013-07-02 11:24:00,77.5,71.2,29.98,SSE,158,13.0,13.0,81,0.00,,,0.00,meteohub,2013-07-02 15:24:00,
2013-07-02 11:30:00,77.5,70.9,29.98,ESE,112,6.0,10.0,80,0.00,,,0.00,meteohub,2013-07-02 15:30:00,
2013-07-02 11:35:00,77.5,70.9,29.98,SSW,202,5.0,13.0,80,0.00,,,0.00,meteohub,2013-07-02 15:35:00,
2013-07-02 11:40:00,77.4,71.1,29.98,SSE,158,3.0,8.0,81,0.00,,,0.00,meteohub,2013-07-02 15:40:00,
2013-07-02 11:45:00,77.4,71.4,29.98,SSW,202,1.0,7.0,82,0.00,,,0.00,meteohub,2013-07-02 15:45:00,
2013-07-02 11:50:00,77.4,72.1,29.98,South,180,6.0,7.0,84,0.00,,,0.00,meteohub,2013-07-02 15:50:00,
2013-07-02 11:56:00,77.2,71.6,29.98,SW,225,2.0,8.0,83,0.00,,,0.00,meteohub,2013-07-02 15:56:00,
2013-07-02 12:01:00,77.2,72.0,29.98,SW,225,5.0,8.0,84,0.00,,,0.00,meteohub,2013-07-02 16:01:00,
2013-07-02 12:06:00,77.4,72.9,29.98,NNW,338,4.0,9.0,86,0.00,,,0.00,meteohub,2013-07-02 16:06:00,
2013-07-02 12:11:00,77.4,72.5,29.98,SSW,202,2.0,9.0,85,0.00,,,0.00,meteohub,2013-07-02 16:11:00,
2013-07-02 12:16:00,77.4,72.9,29.98,SSW,202,1.0,6.0,86,0.00,,,0.00,meteohub,2013-07-02 16:16:00,
2013-07-02 12:21:00,77.4,72.9,29.98,SSW,202,5.0,5.0,86,0.00,,,0.00,meteohub,2013-07-02 16:21:00,
2013-07-02 12:26:00,78.1,73.9,29.98,SSW,202,3.0,7.0,87,0.00,,,0.00,meteohub,2013-07-02 16:26:00,
2013-07-02 12:32:00,79.0,73.8,29.98,ESE,112,5.0,7.0,84,0.00,,,0.00,meteohub,2013-07-02 16:32:00,
2013-07-02 12:38:00,79.3,73.8,29.98,SSE,158,4.0,7.0,83,0.00,,,0.00,meteohub,2013-07-02 16:38:00,
2013-07-02 12:43:00,79.2,71.8,29.95,WSW,248,6.0,7.0,78,0.00,,,0.00,meteohub,2013-07-02 16:43:00,
2013-07-02 12:48:00,79.3,71.1,29.95,WSW,248,2.0,7.0,76,0.00,,,0.00,meteohub,2013-07-02 16:48:00,
2013-07-02 12:53:00,79.5,70.9,29.98,SSW,202,8.0,8.0,75,0.00,,,0.00,meteohub,2013-07-02 16:53:00,
2013-07-02 12:58:00,79.2,69.3,29.98,SSW,202,3.0,6.0,72,0.00,,,0.00,meteohub,2013-07-02 16:58:00,
2013-07-02 13:04:00,79.3,70.3,29.98,SW,225,8.0,9.0,74,0.00,,,0.00,meteohub,2013-07-02 17:04:00,
2013-07-02 13:09:00,79.3,70.3,29.98,SSE,158,3.0,9.0,74,0.00,,,0.00,meteohub,2013-07-02 17:09:00,
2013-07-02 13:15:00,79.5,70.5,29.98,SW,225,3.0,8.0,74,0.00,,,0.00,meteohub,2013-07-02 17:15:00,
2013-07-02 13:20:00,79.9,71.2,29.98,SSW,202,4.0,7.0,75,0.00,,,0.00,meteohub,2013-07-02 17:20:00,
2013-07-02 13:25:00,80.4,70.9,29.98,SW,225,4.0,7.0,73,0.00,,,0.00,meteohub,2013-07-02 17:25:00,
2013-07-02 13:30:00,80.6,70.0,29.98,SSW,202,4.0,8.0,70,0.00,,,0.00,meteohub,2013-07-02 17:30:00,
2013-07-02 13:35:00,80.6,69.4,29.98,SSE,158,4.0,8.0,69,0.00,,,0.00,meteohub,2013-07-02 17:35:00,
2013-07-02 13:41:00,80.8,70.2,29.98,WSW,248,4.0,8.0,70,0.00,,,0.00,meteohub,2013-07-02 17:41:00,
2013-07-02 13:46:00,81.0,68.9,29.98,SW,225,5.0,7.0,67,0.00,,,0.00,meteohub,2013-07-02 17:46:00,
2013-07-02 13:51:00,81.1,68.7,29.98,SW,225,4.0,10.0,66,0.00,,,0.00,meteohub,2013-07-02 17:51:00,
2013-07-02 13:56:00,81.1,67.8,29.95,SW,225,1.0,10.0,64,0.00,,,0.00,meteohub,2013-07-02 17:56:00,
2013-07-02 14:01:00,80.8,68.0,29.95,SSW,202,1.0,11.0,65,0.00,,,0.00,meteohub,2013-07-02 18:01:00,
2013-07-02 14:06:00,80.6,68.5,29.95,SSW,202,3.0,11.0,67,0.00,,,0.00,meteohub,2013-07-02 18:06:00,
2013-07-02 14:12:00,80.4,68.5,29.95,SSW,202,4.0,10.0,67,0.00,,,0.00,meteohub,2013-07-02 18:12:00,
2013-07-02 14:17:00,80.4,68.5,29.95,SSW,202,2.0,10.0,67,0.00,,,0.00,meteohub,2013-07-02 18:17:00,
2013-07-02 14:22:00,80.4,68.5,29.95,South,180,6.0,10.0,67,0.00,,,0.00,meteohub,2013-07-02 18:22:00,
2013-07-02 14:27:00,80.4,68.9,29.98,SSE,158,1.0,10.0,68,0.00,,,0.00,meteohub,2013-07-02 18:27:00,
2013-07-02 14:32:00,80.8,69.3,29.98,SW,225,2.0,12.0,68,0.00,,,0.00,meteohub,2013-07-02 18:32:00,
2013-07-02 14:37:00,81.0,68.9,29.98,SW,225,9.0,12.0,67,0.00,,,0.00,meteohub,2013-07-02 18:37:00,
2013-07-02 14:42:00,81.1,69.6,29.95,SSE,158,4.0,12.0,68,0.00,,,0.00,meteohub,2013-07-02 18:42:00,
2013-07-02 14:47:00,81.1,69.6,29.95,SSE,158,4.0,12.0,68,0.00,,,0.00,meteohub,2013-07-02 18:47:00,
2013-07-02 14:52:00,81.5,70.0,29.95,South,180,6.0,9.0,68,0.00,,,0.00,meteohub,2013-07-02 18:52:00,
2013-07-02 14:57:00,82.0,70.0,29.98,SSW,202,4.0,9.0,67,0.00,,,0.00,meteohub,2013-07-02 18:57:00,
2013-07-02 15:02:00,82.0,69.6,29.98,South,180,7.0,9.0,66,0.00,,,0.00,meteohub,2013-07-02 19:02:00,
2013-07-02 15:07:00,82.0,70.0,29.98,SW,225,5.0,11.0,67,0.00,,,0.00,meteohub,2013-07-02 19:07:00,
2013-07-02 15:12:00,82.2,70.2,29.95,South,180,5.0,12.0,67,0.00,,,0.00,meteohub,2013-07-02 19:12:00,
2013-07-02 15:17:00,82.0,70.0,29.95,SSE,158,3.0,12.0,67,0.00,,,0.00,meteohub,2013-07-02 19:17:00,
2013-07-02 15:22:00,82.2,70.2,29.95,SSE,158,10.0,12.0,67,0.00,,,0.00,meteohub,2013-07-02 19:22:00,
2013-07-02 15:27:00,81.9,68.9,29.95,South,180,3.0,12.0,65,0.00,,,0.00,meteohub,2013-07-02 19:27:00,
2013-07-02 15:32:00,81.9,69.8,29.95,SW,225,3.0,12.0,67,0.00,,,0.00,meteohub,2013-07-02 19:32:00,
2013-07-02 15:37:00,82.9,71.2,29.95,WSW,248,2.0,10.0,68,0.00,,,0.00,meteohub,2013-07-02 19:37:00,
2013-07-02 15:42:00,83.5,70.0,29.95,ESE,112,4.0,6.0,64,0.00,,,0.00,meteohub,2013-07-02 19:42:00,
2013-07-02 15:47:00,83.5,69.6,29.95,SSE,158,8.0,9.0,63,0.00,,,0.00,meteohub,2013-07-02 19:47:00,
2013-07-02 15:52:00,83.3,69.4,29.95,SSW,202,6.0,9.0,63,0.00,,,0.00,meteohub,2013-07-02 19:52:00,
2013-07-02 15:57:00,83.1,68.7,29.98,SSE,158,4.0,9.0,62,0.00,,,0.00,meteohub,2013-07-02 19:57:00,
2013-07-02 16:02:00,83.3,69.4,29.98,West,270,3.0,9.0,63,0.00,,,0.00,meteohub,2013-07-02 20:02:00,
2013-07-02 16:07:00,83.1,69.3,29.98,SSW,202,6.0,10.0,63,0.00,,,0.00,meteohub,2013-07-02 20:07:00,
2013-07-02 16:12:00,82.4,68.0,29.95,SSE,158,8.0,10.0,62,0.00,,,0.00,meteohub,2013-07-02 20:12:00,
2013-07-02 16:17:00,82.4,68.5,29.95,South,180,3.0,10.0,63,0.00,,,0.00,meteohub,2013-07-02 20:17:00,
2013-07-02 16:22:00,82.2,68.9,29.95,SSW,202,3.0,10.0,64,0.00,,,0.00,meteohub,2013-07-02 20:22:00,
2013-07-02 16:27:00,82.8,68.9,29.95,SSE,158,2.0,10.0,63,0.00,,,0.00,meteohub,2013-07-02 20:27:00,
2013-07-02 16:32:00,83.3,69.8,29.95,SE,135,6.0,9.0,64,0.00,,,0.00,meteohub,2013-07-02 20:32:00,
2013-07-02 16:37:00,83.7,69.3,29.95,SSE,158,3.0,9.0,62,0.00,,,0.00,meteohub,2013-07-02 20:37:00,
2013-07-02 16:42:00,83.5,68.5,29.95,SSW,202,4.0,9.0,61,0.00,,,0.00,meteohub,2013-07-02 20:42:00,
2013-07-02 16:47:00,83.7,67.8,29.95,WNW,292,6.0,11.0,59,0.00,,,0.00,meteohub,2013-07-02 20:47:00,
2013-07-02 16:52:00,83.1,67.8,29.95,West,270,6.0,12.0,60,0.00,,,0.00,meteohub,2013-07-02 20:52:00,
2013-07-02 16:57:00,82.9,67.1,29.98,SW,225,6.0,12.0,59,0.00,,,0.00,meteohub,2013-07-02 20:57:00,
2013-07-02 17:03:00,83.3,66.9,29.98,SW,225,6.0,9.0,58,0.00,,,0.00,meteohub,2013-07-02 21:03:00,
2013-07-02 17:07:00,83.5,67.1,29.98,SSW,202,3.0,7.0,58,0.00,,,0.00,meteohub,2013-07-02 21:07:00,
2013-07-02 17:13:00,83.5,67.1,29.95,SSE,158,4.0,10.0,58,0.00,,,0.00,meteohub,2013-07-02 21:13:00,
2013-07-02 17:18:00,83.3,66.6,29.95,South,180,8.0,10.0,57,0.00,,,0.00,meteohub,2013-07-02 21:18:00,
2013-07-02 17:23:00,83.3,66.9,29.95,South,180,6.0,10.0,58,0.00,,,0.00,meteohub,2013-07-02 21:23:00,
2013-07-02 17:28:00,83.3,66.6,29.98,SSE,158,4.0,10.0,57,0.00,,,0.00,meteohub,2013-07-02 21:28:00,
2013-07-02 17:33:00,82.9,66.2,29.98,SSE,158,3.0,8.0,57,0.00,,,0.00,meteohub,2013-07-02 21:33:00,
2013-07-02 17:39:00,82.6,66.7,29.98,WSW,248,2.0,8.0,59,0.00,,,0.00,meteohub,2013-07-02 21:39:00,
2013-07-02 17:44:00,82.4,66.6,29.98,West,270,3.0,9.0,59,0.00,,,0.00,meteohub,2013-07-02 21:44:00,
2013-07-02 17:49:00,82.2,66.9,29.98,South,180,3.0,9.0,60,0.00,,,0.00,meteohub,2013-07-02 21:49:00,
2013-07-02 17:54:00,82.0,67.6,30.01,SSE,158,3.0,11.0,62,0.00,,,0.00,meteohub,2013-07-02 21:54:00,
2013-07-02 17:59:00,81.7,68.4,30.01,SSE,158,2.0,11.0,64,0.00,,,0.00,meteohub,2013-07-02 21:59:00,
2013-07-02 18:04:00,81.3,68.4,30.01,SSE,158,5.0,11.0,65,0.00,,,0.00,meteohub,2013-07-02 22:04:00,
2013-07-02 18:09:00,81.1,68.2,30.01,SW,225,2.0,9.0,65,0.00,,,0.00,meteohub,2013-07-02 22:09:00,
2013-07-02 18:15:00,81.0,68.5,30.01,SSE,158,2.0,9.0,66,0.00,,,0.00,meteohub,2013-07-02 22:15:00,
2013-07-02 18:20:00,80.8,68.7,30.01,SSW,202,3.0,6.0,67,0.00,,,0.00,meteohub,2013-07-02 22:20:00,
2013-07-02 18:25:00,80.6,68.5,30.04,SSW,202,3.0,6.0,67,0.00,,,0.00,meteohub,2013-07-02 22:25:00,
2013-07-02 18:30:00,80.4,68.9,30.04,SSE,158,2.0,6.0,68,0.00,,,0.00,meteohub,2013-07-02 22:30:00,
2013-07-02 18:35:00,80.4,69.3,30.04,South,180,6.0,6.0,69,0.00,,,0.00,meteohub,2013-07-02 22:35:00,
2013-07-02 18:40:00,80.2,69.1,29.98,WSW,248,3.0,7.0,69,0.00,,,0.00,meteohub,2013-07-02 22:40:00,
2013-07-02 18:45:00,80.2,69.1,29.98,WSW,248,3.0,7.0,69,0.00,,,0.00,meteohub,2013-07-02 22:45:00,
2013-07-02 18:51:00,80.1,68.9,29.98,NNW,338,6.0,10.0,69,0.00,,,0.00,meteohub,2013-07-02 22:51:00,
2013-07-02 18:56:00,79.3,68.4,29.98,WNW,292,3.0,10.0,69,0.00,,,0.00,meteohub,2013-07-02 22:56:00,
2013-07-02 19:01:00,78.6,68.9,29.98,ENE,68,1.0,10.0,72,0.00,,,0.00,meteohub,2013-07-02 23:01:00,
2013-07-02 19:06:00,77.9,69.3,29.98,WSW,248,3.0,7.0,75,0.00,,,0.00,meteohub,2013-07-02 23:06:00,
2013-07-02 19:11:00,77.4,69.6,30.01,WNW,292,3.0,7.0,77,0.04,,,0.04,meteohub,2013-07-02 23:11:00,
2013-07-02 19:16:00,76.5,69.8,30.01,WSW,248,4.0,9.0,80,0.13,,,0.13,meteohub,2013-07-02 23:16:00,
2013-07-02 19:22:00,76.3,69.6,30.01,WSW,248,5.0,9.0,80,0.13,,,0.13,meteohub,2013-07-02 23:22:00,
2013-07-02 19:27:00,75.7,70.2,30.04,SSW,202,3.0,10.0,83,0.13,,,0.13,meteohub,2013-07-02 23:27:00,
2013-07-02 19:31:00,75.4,70.5,30.04,SSW,202,3.0,10.0,85,0.13,,,0.13,meteohub,2013-07-02 23:31:00,
2013-07-02 19:36:00,75.2,70.7,30.04,SSE,158,3.0,10.0,86,0.16,,,0.16,meteohub,2013-07-02 23:36:00,
2013-07-02 19:41:00,75.0,70.9,30.04,NW,315,3.0,8.0,87,0.16,,,0.16,meteohub,2013-07-02 23:41:00,
2013-07-02 19:46:00,74.8,70.3,30.04,South,180,2.0,8.0,86,0.16,,,0.16,meteohub,2013-07-02 23:46:00,
2013-07-02 19:51:00,74.7,70.5,30.04,SSE,158,2.0,6.0,87,0.16,,,0.16,meteohub,2013-07-02 23:51:00,
2013-07-02 19:54:00,74.7,70.5,30.04,SW,225,0.0,6.0,87,0.16,,,0.16,meteohub,2013-07-02 23:54:00,
2013-07-02 19:59:00,74.5,70.3,30.04,SSW,202,1.0,5.0,87,0.16,,,0.16,meteohub,2013-07-02 23:59:00,
2013-07-02 20:02:00,74.3,70.2,30.04,SSW,202,0.0,5.0,87,0.16,,,0.16,meteohub,2013-07-03 00:02:00,
2013-07-02 20:07:00,74.3,70.2,30.04,SW,225,0.0,5.0,87,0.16,,,0.16,meteohub,2013-07-03 00:07:00,
2013-07-02 20:12:00,74.1,70.3,30.04,SW,225,2.0,4.0,88,0.08,,,0.16,meteohub,2013-07-03 00:12:00,
2013-07-02 20:17:00,74.1,70.7,30.04,SSE,158,2.0,4.0,89,0.03,,,0.16,meteohub,2013-07-03 00:17:00,
2013-07-02 20:22:00,73.9,70.5,30.04,SSW,202,2.0,4.0,89,0.03,,,0.16,meteohub,2013-07-03 00:22:00,
2013-07-02 20:24:00,73.9,70.5,30.04,SE,135,0.0,4.0,89,0.03,,,0.16,meteohub,2013-07-03 00:24:00,
2013-07-02 20:29:00,73.8,70.3,30.04,SSE,158,5.0,5.0,89,0.03,,,0.16,meteohub,2013-07-03 00:29:00,
2013-07-02 20:33:00,73.8,70.3,30.04,WSW,248,4.0,5.0,89,0.03,,,0.16,meteohub,2013-07-03 00:33:00,
2013-07-02 20:38:00,73.8,70.7,30.04,SW,225,1.0,5.0,90,0.00,,,0.16,meteohub,2013-07-03 00:38:00,
2013-07-02 20:43:00,73.8,70.7,30.04,South,180,4.0,5.0,90,0.05,,,0.21,meteohub,2013-07-03 00:43:00,
2013-07-02 20:48:00,73.6,70.7,30.04,SW,225,2.0,5.0,91,0.05,,,0.21,meteohub,2013-07-03 00:48:00,
2013-07-02 20:53:00,73.6,70.7,30.04,SSW,202,3.0,5.0,91,0.05,,,0.21,meteohub,2013-07-03 00:53:00,
2013-07-02 20:59:00,73.6,70.7,30.04,SSW,202,2.0,4.0,91,0.05,,,0.21,meteohub,2013-07-03 00:59:00,
2013-07-02 21:01:00,73.6,70.7,30.04,South,180,2.0,4.0,91,0.05,,,0.21,meteohub,2013-07-03 01:01:00,
2013-07-02 21:06:00,73.6,70.7,30.04,SSW,202,3.0,5.0,91,0.05,,,0.21,meteohub,2013-07-03 01:06:00,
2013-07-02 21:07:00,73.6,70.7,30.04,SW,225,2.0,5.0,91,0.05,,,0.21,meteohub,2013-07-03 01:07:00,
2013-07-02 21:09:00,73.6,70.7,30.04,SSW,202,2.0,5.0,91,0.05,,,0.21,meteohub,2013-07-03 01:09:00,
2013-07-02 21:14:00,73.6,71.1,30.04,SSW,202,3.0,5.0,92,0.05,,,0.21,meteohub,2013-07-03 01:14:00,
2013-07-02 21:19:00,73.6,71.1,30.04,SSW,202,1.0,5.0,92,0.05,,,0.21,meteohub,2013-07-03 01:19:00,
2013-07-02 21:24:00,73.6,70.7,30.04,ESE,112,3.0,7.0,91,0.05,,,0.21,meteohub,2013-07-03 01:24:00,
2013-07-02 21:28:00,73.4,70.9,30.04,SW,225,2.0,7.0,92,0.05,,,0.21,meteohub,2013-07-03 01:28:00,
2013-07-02 21:33:00,73.4,70.9,30.04,South,180,3.0,5.0,92,0.05,,,0.21,meteohub,2013-07-03 01:33:00,
2013-07-02 21:38:00,73.4,70.9,30.04,South,180,2.0,5.0,92,0.05,,,0.21,meteohub,2013-07-03 01:38:00,
2013-07-02 21:43:00,73.4,70.9,30.04,SSE,158,2.0,5.0,92,0.00,,,0.21,meteohub,2013-07-03 01:43:00,
2013-07-02 21:48:00,73.4,70.9,30.04,SSE,158,3.0,5.0,92,0.00,,,0.21,meteohub,2013-07-03 01:48:00,
2013-07-02 21:50:00,73.4,70.9,30.04,SSW,202,0.0,4.0,92,0.00,,,0.21,meteohub,2013-07-03 01:50:00,
2013-07-02 21:52:00,73.2,70.7,30.04,SE,135,0.0,4.0,92,0.00,,,0.21,meteohub,2013-07-03 01:52:00,
2013-07-02 21:57:00,73.2,70.7,30.04,SSW,202,3.0,4.0,92,0.00,,,0.21,meteohub,2013-07-03 01:57:00,
2013-07-02 22:02:00,73.2,70.7,30.04,ESE,112,2.0,3.0,92,0.00,,,0.21,meteohub,2013-07-03 02:02:00,
2013-07-02 22:07:00,73.2,70.7,30.04,ESE,112,2.0,4.0,92,0.00,,,0.21,meteohub,2013-07-03 02:07:00,
2013-07-02 22:12:00,73.0,70.5,30.04,South,180,4.0,9.0,92,0.00,,,0.21,meteohub,2013-07-03 02:12:00,
2013-07-02 22:18:00,73.0,70.5,30.04,SSE,158,0.0,9.0,92,0.00,,,0.21,meteohub,2013-07-03 02:18:00,
2013-07-02 22:24:00,73.0,70.5,30.07,South,180,0.0,6.0,92,0.00,,,0.21,meteohub,2013-07-03 02:24:00,
2013-07-02 22:29:00,73.0,70.5,30.07,SSW,202,0.0,4.0,92,0.00,,,0.21,meteohub,2013-07-03 02:29:00,
2013-07-02 22:33:00,72.9,70.3,30.07,SSW,202,3.0,3.0,92,0.00,,,0.21,meteohub,2013-07-03 02:33:00,
2013-07-02 22:39:00,72.9,70.3,30.07,SSE,158,0.0,2.0,92,0.00,,,0.21,meteohub,2013-07-03 02:39:00,
2013-07-02 22:44:00,72.9,70.7,30.07,SSE,158,1.0,3.0,93,0.00,,,0.21,meteohub,2013-07-03 02:44:00,
2013-07-02 22:47:00,72.9,70.7,30.07,SSE,158,0.0,4.0,93,0.00,,,0.21,meteohub,2013-07-03 02:47:00,
2013-07-02 22:52:00,72.9,70.7,30.07,WSW,248,2.0,4.0,93,0.00,,,0.21,meteohub,2013-07-03 02:52:00,
2013-07-02 22:57:00,72.7,70.5,30.07,South,180,0.0,4.0,93,0.00,,,0.21,meteohub,2013-07-03 02:57:00,
2013-07-02 23:03:00,72.7,70.5,30.07,SSW,202,0.0,3.0,93,0.00,,,0.21,meteohub,2013-07-03 03:03:00,
2013-07-02 23:06:00,72.7,70.5,30.07,South,180,0.0,3.0,93,0.00,,,0.21,meteohub,2013-07-03 03:06:00,
2013-07-02 23:11:00,72.5,70.0,30.04,South,180,0.0,3.0,92,0.00,,,0.21,meteohub,2013-07-03 03:11:00,
2013-07-02 23:16:00,72.5,70.0,30.04,SSW,202,0.0,2.0,92,0.00,,,0.21,meteohub,2013-07-03 03:16:00,
2013-07-02 23:22:00,72.5,70.0,30.04,SW,225,1.0,3.0,92,0.00,,,0.21,meteohub,2013-07-03 03:22:00,
2013-07-02 23:24:00,72.3,69.8,30.04,SSW,202,0.0,3.0,92,0.00,,,0.21,meteohub,2013-07-03 03:24:00,
2013-07-02 23:29:00,72.3,69.8,30.07,WSW,248,1.0,3.0,92,0.00,,,0.21,meteohub,2013-07-03 03:29:00,
2013-07-02 23:35:00,72.3,69.8,30.07,WSW,248,0.0,2.0,92,0.00,,,0.21,meteohub,2013-07-03 03:35:00,
2013-07-02 23:39:00,72.1,69.6,30.07,West,270,0.0,2.0,92,0.00,,,0.21,meteohub,2013-07-03 03:39:00,
2013-07-02 23:44:00,72.1,69.6,30.07,SSE,158,0.0,2.0,92,0.00,,,0.21,meteohub,2013-07-03 03:44:00,
2013-07-02 23:49:00,72.0,69.4,30.07,SSW,202,0.0,2.0,92,0.00,,,0.21,meteohub,2013-07-03 03:49:00,
2013-07-02 23:54:00,72.0,69.4,30.07,South,180,0.0,1.0,92,0.00,,,0.21,meteohub,2013-07-03 03:54:00,
2013-07-02 23:59:00,72.0,69.4,30.07,SSE,158,2.0,2.0,92,0.00,,,0.21,meteohub,2013-07-03 03:59:00,